TimeEDT,TemperatureF,Dew PointF,Humidity,Sea Level PressureIn,VisibilityMPH,Wind Direction,Wind SpeedMPH,Gust SpeedMPH,PrecipitationIn,Events,Conditions,WindDirDegrees,DateUTC
12:15 AM,41.4,37.9,88,30.25,10.0,Calm,Calm,-,N/A,,Overcast,0,2012-10-09 04:15:00
12:35 AM,41.5,38.3,88,30.25,10.0,Calm,Calm,-,N/A,,Overcast,0,2012-10-09 04:35:00
12:55 AM,42.3,38.8,88,30.25,10.0,Calm,Calm,-,N/A,,Overcast,0,2012-10-09 04:55:00
1:15 AM,42.8,39.4,88,30.24,10.0,Calm,Calm,-,N/A,,Overcast,0,2012-10-09 05:15:00
1:35 AM,43.2,39.4,86,30.24,10.0,Calm,Calm,-,N/A,,Overcast,0,2012-10-09 05:35:00
1:55 AM,43.3,39.6,87,30.23,10.0,Calm,Calm,-,N/A,,Overcast,0,2012-10-09 05:55:00
2:15 AM,43.3,39.7,87,30.24,10.0,Calm,Calm,-,N/A,,Overcast,0,2012-10-09 06:15:00
2:35 AM,43.0,39.9,89,30.23,10.0,Calm,Calm,-,N/A,,Overcast,0,2012-10-09 06:35:00
4:55 AM,40.6,38.1,91,30.21,7.0,Calm,Calm,-,N/A,,Overcast,0,2012-10-09 08:55:00
12:15 PM,50.7,41.4,70,30.20,10.0,Calm,Calm,-,N/A,,Unknown,0,2012-10-09 16:15:00
12:35 PM,52.9,42.3,67,30.19,10.0,Calm,Calm,-,N/A,,Overcast,0,2012-10-09 16:35:00
12:55 PM,54.0,42.4,65,30.19,10.0,Calm,Calm,-,N/A,,Overcast,0,2012-10-09 16:55:00
1:15 PM,54.5,41.9,62,30.17,10.0,Calm,Calm,-,N/A,,Overcast,0,2012-10-09 17:15:00
1:35 PM,57.9,43.5,59,30.16,10.0,Calm,Calm,-,N/A,,Overcast,0,2012-10-09 17:35:00
1:55 PM,56.8,41.0,55,30.14,10.0,Calm,Calm,-,N/A,,Overcast,0,2012-10-09 17:55:00
2:15 PM,57.9,41.5,54,30.14,10.0,Calm,Calm,-,N/A,,Overcast,0,2012-10-09 18:15:00
2:35 PM,57.4,40.8,54,30.13,10.0,Calm,Calm,-,N/A,,Overcast,0,2012-10-09 18:35:00
2:55 PM,57.6,42.1,56,30.12,10.0,Calm,Calm,-,N/A,,Overcast,0,2012-10-09 18:55:00
3:15 PM,57.7,42.3,56,30.12,10.0,Calm,Calm,-,N/A,,Mostly Cloudy,0,2012-10-09 19:15:00
3:35 PM,59.5,43.2,55,30.10,10.0,Calm,Calm,-,N/A,,Scattered Clouds,0,2012-10-09 19:35:00
3:55 PM,59.4,43.2,55,30.10,10.0,Calm,Calm,-,N/A,,Clear,0,2012-10-09 19:55:00
4:15 PM,60.4,44.8,56,30.10,10.0,Calm,Calm,-,N/A,,Clear,0,2012-10-09 20:15:00
4:35 PM,60.6,45.3,57,30.10,10.0,SSE,3.5,-,N/A,,Scattered Clouds,150,2012-10-09 20:35:00
4:55 PM,61.2,45.1,56,30.10,10.0,SE,3.5,-,N/A,,Mostly Cloudy,130,2012-10-09 20:55:00
5:15 PM,60.4,46.8,61,30.10,10.0,Calm,Calm,-,N/A,,Overcast,0,2012-10-09 21:15:00
5:35 PM,60.3,46.8,61,30.09,10.0,Calm,Calm,-,N/A,,Overcast,0,2012-10-09 21:35:00
5:55 PM,59.7,46.6,62,30.10,10.0,Calm,Calm,-,N/A,,Overcast,0,2012-10-09 21:55:00
6:15 PM,59.9,46.6,61,30.10,10.0,Calm,Calm,-,N/A,,Overcast,0,2012-10-09 22:15:00
6:35 PM,59.0,49.3,70,30.10,10.0,Calm,Calm,-,N/A,,Overcast,0,2012-10-09 22:35:00
6:55 PM,57.4,50.0,76,30.09,10.0,Calm,Calm,-,N/A,,Overcast,0,2012-10-09 22:55:00
7:15 PM,56.3,50.9,82,30.09,10.0,Calm,Calm,-,N/A,,Overcast,0,2012-10-09 23:15:00
7:35 PM,55.2,50.0,83,30.09,10.0,Calm,Calm,-,N/A,,Overcast,0,2012-10-09 23:35:00
7:55 PM,54.5,49.3,83,30.09,10.0,Calm,Calm,-,N/A,,Overcast,0,2012-10-09 23:55:00
8:15 PM,52.7,48.2,85,30.09,10.0,Calm,Calm,-,N/A,,Mostly Cloudy,0,2012-10-10 00:15:00
8:35 PM,50.9,47.1,87,30.09,10.0,Calm,Calm,-,N/A,,Scattered Clouds,0,2012-10-10 00:35:00
8:55 PM,50.0,46.6,88,30.09,10.0,Calm,Calm,-,N/A,,Scattered Clouds,0,2012-10-10 00:55:00
9:15 PM,49.8,46.9,90,30.09,10.0,Calm,Calm,-,N/A,,Mostly Cloudy,0,2012-10-10 01:15:00
9:35 PM,50.4,47.7,90,30.09,10.0,Calm,Calm,-,N/A,,Overcast,0,2012-10-10 01:35:00
9:55 PM,51.1,48.4,90,30.09,10.0,Calm,Calm,-,N/A,,Overcast,0,2012-10-10 01:55:00
10:15 PM,51.1,48.4,90,30.09,10.0,Calm,Calm,-,N/A,,Overcast,0,2012-10-10 02:15:00
10:35 PM,51.6,48.9,90,30.09,10.0,Calm,Calm,-,N/A,,Overcast,0,2012-10-10 02:35:00
10:55 PM,51.1,48.4,90,30.07,10.0,Calm,Calm,-,N/A,,Overcast,0,2012-10-10 02:55:00
11:15 PM,51.3,48.4,90,30.07,10.0,Calm,Calm,-,N/A,,Overcast,0,2012-10-10 03:15:00
11:35 PM,51.3,48.6,90,30.07,10.0,Calm,Calm,-,N/A,,Overcast,0,2012-10-10 03:35:00
11:55 PM,50.9,48.2,90,30.06,10.0,Calm,Calm,-,N/A,,Overcast,0,2012-10-10 03:55:00